SCP
0 0 0 0 0 1 1 1 1 1 1 1 1 1 1 1 1 1 0 0 0 0 0 0 0 0 0 0 0 0 0 0 0 0 0 0 0 0 0 0 0 0 0
0 0 0 0 1 1 1 1 1 1 1 1 1 1 1 1 1 1 1 0 0 0 0 0 0 0 0 0 0 0 0 0 0 0 0 0 0 0 0 0 0 0 0
0 0 0 1 1 1 1 1 1 1 1 1 1 1 1 1 1 1 1 1 0 0 0 0 0 0 0 0 0 0 0 0 0 0 0 0 0 0 0 0 0 0 0
0 0 1 1 1 1 1 1 1 1 1 1 1 1 1 1 1 1 1 1 1 0 0 0 0 0 0 0 0 0 0 0 0 0 0 0 0 0 0 0 0 0 0
0 0 1 1 1 1 1 1 1 1 1 1 1 1 1 1 1 1 1 1 1 1 0 0 0 0 0 0 0 0 0 0 0 0 0 0 0 0 0 0 0 0 0
0 0 1 1 1 1 1 1 1 1 1 1 1 1 1 1 1 1 1 1 1 1 1 0 0 0 0 0 0 0 0 0 0 0 0 0 0 0 0 0 0 0 0
1 1 1 1 1 1 1 1 1 1 1 1 1 1 1 1 1 1 1 1 0 0 0 0 0 0 0 0 0 0 0 0 0 0 0 0 0 0 0 0 0 0 0
1 1 1 1 1 1 1 1 1 1 1 1 1 1 1 1 1 1 1 1 0 0 0 0 0 0 0 0 0 0 0 0 0 0 0 0 0 0 0 0 0 0 0
1 1 1 1 1 1 1 1 1 1 1 1 1 1 1 1 1 1 1 1 1 0 0 0 0 0 0 0 0 0 0 0 0 0 0 0 0 0 0 0 0 0 0
1 1 1 1 1 1 1 1 1 1 1 1 1 1 1 1 1 1 1 1 1 1 0 0 0 0 0 0 0 0 0 0 0 0 0 0 0 0 0 0 0 0 0
1 1 1 1 1 1 1 1 1 1 1 1 1 1 1 1 1 1 1 1 1 1 1 0 0 0 0 0 0 0 0 0 0 0 0 0 0 0 0 0 0 0 0
1 1 1 1 1 1 1 1 1 1 1 1 1 1 1 0 0 1 1 1 1 1 1 1 0 0 0 0 0 0 0 0 0 0 0 0 0 0 0 0 0 0 0
1 1 1 1 1 1 1 1 1 1 1 1 1 1 0 0 0 0 0 0 0 0 0 0 0 0 0 0 0 0 0 0 0 0 0 0 0 0 0 0 0 0 0
1 1 1 1 1 1 1 1 1 1 1 1 1 1 0 0 0 0 0 0 0 0 0 0 0 0 0 0 0 0 0 0 0 0 0 0 0 0 0 0 0 0 0
1 1 1 1 1 1 1 1 1 1 1 1 1 1 1 0 0 0 0 0 0 0 0 0 0 0 0 0 0 0 0 0 0 0 0 0 0 0 0 0 0 0 0
1 1 1 1 1 1 1 1 1 1 1 1 1 1 1 1 0 0 0 0 0 0 0 0 0 0 0 0 0 0 0 0 0 0 0 0 0 0 0 0 0 0 0
1 1 1 1 1 1 1 1 1 1 1 1 1 1 1 1 0 0 0 0 0 0 0 0 0 0 0 0 0 0 0 0 0 0 0 0 0 0 0 0 0 0 0
1 1 1 1 1 1 1 1 1 1 1 1 1 1 1 0 0 0 0 0 0 0 0 0 0 0 0 0 0 0 0 0 0 0 0 0 0 0 0 0 0 0 0
1 1 1 1 1 1 1 1 1 1 0 0 0 0 0 0 0 0 0 0 0 0 0 0 0 0 0 0 0 0 0 0 0 0 0 0 0 0 0 0 0 0 0
1 1 1 1 1 1 1 1 1 0 0 0 0 0 0 0 0 0 0 0 0 0 0 0 0 0 0 0 0 0 0 0 0 0 0 0 0 0 0 0 0 0 0
1 1 1 1 1 1 1 1 1 0 0 0 0 0 0 0 0 0 0 0 0 0 0 0 0 0 0 0 0 0 0 0 0 0 0 0 0 0 0 0 0 0 0
1 1 1 1 1 1 1 0 0 0 0 0 0 0 0 0 0 0 0 0 0 0 0 0 0 0 0 0 0 0 0 0 0 0 0 0 0 0 0 0 0 0 0
0 0 0 0 0 0 0 0 0 0 0 0 0 0 0 0 0 0 0 0 0 0 0 0 0 0 0 0 0 0 0 0 0 0 0 0 0 0 0 0 0 0 0
0 0 0 0 0 0 0 0 0 0 0 0 0 0 0 0 0 0 0 0 0 0 0 0 0 0 0 0 0 0 0 0 0 0 0 0 0 0 0 0 0 0 0
0 0 0 0 0 0 0 0 0 0 0 0 0 0 0 0 0 0 0 0 0 0 0 0 0 0 0 0 0 0 0 0 0 0 0 0 0 0 0 0 0 0 0
0 0 0 0 0 0 0 0 0 0 0 0 0 0 0 0 0 0 0 0 0 0 0 0 0 0 0 0 0 0 0 0 0 0 0 0 0 0 0 0 0 0 0
Wind_Speed
6 8 14 14 14 14 14 14 14 15 15 14 14 14 14 15 14 14 13 13 12 11 10 9 9 8 8 7 7 7 6 6 6 6 6 7 7 8 8 8 8 6 8
10 10 15 14 14 14 14 14 14 14 14 14 14 14 14 14 14 13 12 12 11 10 10 9 8 8 7 7 7 6 6 6 6 7 7 7 8 8 8 9 9 5 9
10 10 12 14 14 14 14 14 14 14 14 13 13 13 13 13 13 12 12 11 10 10 9 9 8 8 7 6 6 6 6 6 6 7 6 4 5 8 9 9 10 9 10
11 9 10 15 14 14 13 13 13 13 13 13 12 12 12 12 11 11 11 11 10 9 9 8 8 7 7 6 6 6 5 6 6 6 3 3 4 7 9 9 10 11 11
9 7 10 15 13 13 13 12 12 12 12 11 11 11 11 11 10 10 10 10 9 9 8 8 7 7 6 6 6 6 5 6 6 5 3 3 3 7 9 10 10 11 11
8 7 9 14 13 12 12 12 11 11 11 11 10 10 10 10 9 9 9 9 8 8 8 8 7 7 7 6 6 6 6 6 6 3 4 4 4 8 10 11 11 11 12
8 6 7 12 12 12 12 11 11 10 10 10 9 9 8 8 8 8 8 8 8 8 8 8 8 7 7 7 6 6 6 7 4 4 4 5 6 10 11 11 12 12 12
8 6 5 11 12 11 11 10 10 9 9 8 8 8 7 7 7 7 7 8 7 7 7 7 7 7 7 7 7 7 7 7 5 5 5 5 8 11 12 12 12 13 13
6 5 4 5 7 9 9 9 9 8 8 7 7 7 7 6 6 7 7 7 7 7 8 8 7 7 7 7 8 8 8 9 5 3 5 4 8 10 11 12 12 13 14
5 4 4 3 3 3 4 8 8 8 7 7 6 6 6 6 6 6 6 6 7 8 8 8 7 8 7 8 9 9 9 8 4 4 3 5 9 10 11 12 12 13 14
4 3 3 3 2 3 3 5 6 6 5 5 5 6 5 2 2 2 4 5 6 8 8 8 7 7 7 7 9 9 8 3 4 4 4 8 10 11 11 11 12 13 14
6 4 3 3 3 3 3 2 1 2 2 2 1 2 1 1 2 2 3 5 6 7 7 7 6 6 5 3 5 7 3 4 4 4 5 10 11 11 11 11 12 13 14
5 4 4 3 3 3 2 2 1 1 1 1 1 1 1 1 1 1 1 2 3 4 3 3 3 2 2 2 3 3 3 3 3 3 5 9 10 10 11 12 12 13 13
4 4 3 4 4 3 2 2 2 1 1 1 1 1 1 1 1 1 1 1 1 1 1 1 1 2 3 3 4 4 4 3 3 3 4 9 9 10 10 11 11 12 13
4 4 4 4 4 3 2 1 2 2 2 2 2 2 2 2 2 2 1 1 2 1 1 2 2 2 3 3 3 4 5 5 4 4 3 8 9 10 10 10 10 11 12
3 4 4 4 4 3 3 2 2 2 1 1 1 2 2 2 2 2 2 1 1 1 1 2 2 2 2 2 3 3 4 4 4 4 4 5 9 9 9 9 9 9 10
4 3 4 4 4 4 3 2 1 1 1 1 1 1 2 2 2 2 1 1 2 1 1 1 2 1 2 2 3 3 3 3 3 4 4 3 4 6 7 7 7 8 9
1 2 2 3 3 3 2 1 1 1 1 1 1 1 2 2 2 2 1 2 1 1 1 1 1 2 2 2 2 3 2 2 4 3 3 3 2 3 5 6 6 6 8
2 2 2 1 2 2 1 1 1 0 1 1 1 1 2 2 2 2 2 2 1 1 1 1 1 1 2 2 3 3 2 2 3 3 3 3 3 3 3 4 6 7 8
2 2 2 1 1 1 1 0 0 0 0 1 1 1 1 1 1 1 1 2 1 1 1 1 2 2 2 2 3 3 2 2 2 2 3 3 3 3 3 3 3 5 7
3 3 2 2 1 1 1 1 1 1 1 1 1 2 2 2 2 1 1 1 1 1 1 1 1 2 1 1 1 2 2 2 2 2 2 2 3 3 3 3 3 3 3
3 2 1 1 1 1 1 1 1 1 1 1 2 2 2 2 1 2 2 1 1 1 1 1 0 1 1 0 0 0 2 3 2 2 2 2 3 2 3 3 3 3 3
2 1 1 1 1 0 1 1 0 1 1 1 2 2 2 2 2 2 2 2 1 1 1 1 1 1 1 1 1 1 1 2 2 2 2 2 2 2 3 3 4 4 4
2 1 1 1 1 1 0 1 1 1 1 2 2 2 2 2 2 2 1 2 1 1 2 2 1 1 1 1 1 1 2 2 2 2 2 2 2 3 3 3 4 4 4
3 2 1 1 1 1 1 1 1 1 1 1 1 3 3 2 2 2 1 1 1 1 2 2 1 1 2 2 2 1 1 1 2 2 4 3 3 3 3 4 4 4 4
4 3 2 2 1 1 1 1 1 1 1 1 1 3 3 2 2 2 1 1 2 2 2 2 2 2 2 2 2 2 2 2 2 3 3 3 4 3 3 3 4 4 4
Wind_Direction
167 162 164 158 150 143 139 134 131 130 129 127 126 127 130 135 140 143 146 148 150 150 150 149 149 148 147 148 151 154 157 161 168 170 167 173 177 176 176 174 169 166 164
150 156 162 158 152 147 143 139 136 134 134 133 133 133 135 139 143 146 148 150 152 153 155 156 157 155 156 156 157 159 162 166 172 176 178 181 181 180 179 176 172 166 166
143 152 158 158 155 151 147 144 141 139 139 139 139 139 141 143 146 150 153 155 158 159 160 162 163 163 163 164 166 167 169 174 180 185 183 178 186 186 185 182 178 174 172
143 148 156 159 157 155 152 148 146 145 145 144 145 146 148 149 152 155 158 161 164 166 168 170 172 172 173 175 177 179 179 182 189 191 179 181 200 200 196 192 187 183 181
141 147 161 160 160 158 156 153 151 151 151 152 154 155 158 160 163 166 167 169 173 176 179 180 182 184 186 188 191 196 199 199 202 198 186 200 214 218 207 203 197 192 188
141 148 162 161 163 161 160 159 159 159 159 160 162 163 166 170 173 177 178 181 185 187 189 191 193 197 199 202 205 208 213 214 212 203 199 206 212 224 217 211 205 200 195
144 149 162 161 164 165 165 164 164 164 165 167 171 172 175 179 182 185 189 194 198 201 202 203 203 207 212 216 218 220 224 225 211 208 210 210 218 229 226 219 211 205 202
144 147 157 164 166 168 168 166 165 165 166 168 173 176 181 188 192 194 200 205 208 213 216 218 217 217 224 229 232 234 236 238 227 222 222 219 225 233 230 223 215 209 206
134 138 146 158 167 172 171 167 164 163 164 169 173 176 184 195 203 208 211 216 220 224 228 231 230 230 234 239 243 244 244 244 233 223 230 225 232 234 233 225 219 213 209
129 137 142 144 148 155 167 172 170 167 168 169 176 183 191 200 207 217 222 231 234 237 238 240 241 245 247 251 252 250 250 250 240 229 233 232 234 236 236 231 223 218 213
144 145 145 145 146 147 156 173 175 177 175 176 182 188 191 192 198 219 234 242 247 246 244 247 249 255 261 264 266 261 256 238 235 235 233 241 240 239 238 233 227 221 217
174 174 165 162 161 158 168 168 166 174 173 178 181 192 178 172 197 212 252 253 258 255 255 255 253 254 258 262 272 272 255 240 235 238 239 243 243 241 239 235 229 224 220
180 174 174 170 166 167 168 159 162 165 162 179 186 178 167 173 221 236 254 268 272 272 266 272 269 257 245 239 242 251 251 244 239 242 244 247 245 242 239 235 231 227 222
173 180 175 175 173 175 170 175 177 177 181 193 207 197 183 196 227 237 242 262 264 267 286 293 275 265 253 245 242 248 251 244 236 237 245 250 249 247 245 239 233 229 226
179 186 185 180 181 180 173 179 175 194 203 205 200 204 198 204 224 233 243 252 263 266 259 264 260 264 262 266 258 251 248 246 243 238 245 252 251 249 247 241 235 235 233
200 194 180 173 178 170 179 194 193 196 208 198 206 207 206 209 215 223 240 248 262 263 261 255 259 260 259 261 266 261 255 251 242 239 237 251 257 254 250 244 240 237 235
206 194 179 170 167 175 187 192 194 199 195 215 230 226 218 216 217 215 232 257 262 258 256 256 267 267 263 268 272 268 260 257 247 242 239 237 248 253 249 245 242 242 239
174 158 166 161 155 173 187 189 191 183 195 231 233 229 232 229 219 208 223 244 250 242 236 245 255 268 273 278 276 274 269 261 252 246 238 230 233 248 254 250 243 241 241
153 121 114 125 137 153 159 176 152 146 196 240 248 238 239 235 229 215 226 234 221 214 245 263 260 251 266 277 276 269 267 259 252 250 246 239 235 240 250 260 256 253 250
104 103 114 116 122 131 108 107 116 95 283 281 269 256 247 237 229 221 249 248 215 209 251 261 264 260 251 269 282 290 279 264 248 247 248 247 242 240 242 250 257 260 251
64 73 101 119 115 113 143 195 212 242 262 268 258 258 253 242 234 218 234 251 235 228 246 253 257 283 279 292 311 312 300 277 264 256 253 243 244 246 242 241 241 248 255
64 61 70 115 140 143 186 207 207 208 234 246 265 278 270 255 243 226 212 218 219 238 270 260 239 245 274 297 163 298 314 314 301 277 266 248 253 252 248 243 240 243 251
36 41 354 348 19 144 169 137 33 40 356 335 308 294 286 270 248 240 222 214 219 204 235 244 227 206 243 259 198 183 206 252 294 293 275 268 267 260 258 253 246 247 246
342 353 358 5 0 340 117 162 183 200 252 271 292 287 292 276 257 245 220 205 206 214 244 249 221 207 199 250 260 231 226 214 236 291 295 285 281 271 269 267 260 254 248
350 2 3 12 12 348 331 230 202 248 264 284 320 315 301 287 276 267 238 212 213 225 240 250 239 215 200 217 229 226 226 239 227 238 278 295 298 276 270 269 264 258 252
352 356 352 347 321 339 340 325 281 260 273 305 323 305 304 296 286 282 259 229 230 236 238 240 232 224 223 222 230 220 212 218 225 226 252 279 290 289 281 268 259 257 255